Regional Weather Roundup
Issued by NWS

Home | Current Version | Previous Version | Graphics & Text | Print | Product List | Glossary Off
Versions: 1 2 3 4 5 6 7 8 9 10 11 12 13 14 15 16 17 18 19 20 21 22 23 24 25 26 27 28 29 30 31 32 33 34 35 36 37 38 39 40 41 42 43 44 45 46 47 48 49 50

000
ASUS44 KFWD 250915
RWRTX
NORTH TEXAS HOURLY WEATHER ROUNDUP
NATIONAL WEATHER SERVICE FORT WORTH TX
400 AM CDT TUE JUL 25 2017

NOTE: "FAIR" INDICATES FEW OR NO CLOUDS BELOW 12,000 FEET WITH NO
SIGNIFICANT WEATHER AND/OR OBSTRUCTIONS TO VISIBILITY.

TXZ118-119-251000-
DALLAS/FORT WORTH METROPLEX

CITY           SKY/WX    TMP DP  RH WIND       PRES   REMARKS
DFW AIRPORT    PTCLDY    80  76  87 S9        30.00S
DALLAS LOVE    PTCLDY    80  74  81 S10       30.01S
FTW MEACHAM    PTCLDY    80  76  87 S9        30.01S
DAL-EXECUTIVE  CLEAR     76  75  97 VRB3      30.01S
FTW-ALLIANCE   PTCLDY    79  75  87 S7        30.01S
FTW-NAS-JRB    CLEAR     80  74  81 S8        30.02R
FTW-SPINKS     CLEAR     77  73  88 S6        30.04R
ARLINGTON      CLEAR     79  76  90 S10       30.02R
GRAND PRAIRIE  CLEAR     79  73  81 S6        30.03S
ADDISON        CLEAR     78  74  86 S8        30.03S
MESQUITE       CLEAR     75  74  95 SE6       30.02S
LANCASTER      CLEAR     74  72  93 CALM      30.03R
$$

TXZ091>094-102>105-117-120-121-131>134-251000-
NORTH CENTRAL TEXAS

CITY           SKY/WX    TMP DP  RH WIND       PRES   REMARKS
SHRMAN/DENISON CLEAR     77  74  89 S7        30.04R
GAINESVILLE    CLEAR     75  73  93 SE3       30.05R
BOWIE          CLEAR     76  76 100 SE3       30.03S
BRIDGEPORT     MOCLDY    76  72  88 CALM      30.04S
DECATUR        MOCLDY    77  72  83 SE5         N/A
DENTON         MOCLDY    78  75  90 SE6       30.01S
MCKINNEY       CLEAR     76  76 100 S6        30.02S
BONHAM         CLEAR     75  73  94 SE6       30.03S
GREENVILLE     CLEAR     79  77  94 S6        30.03R
ROCKWALL       CLEAR     77  76  96 S7        30.03R
TERRELL        CLEAR     77  74  90 S7        30.03R
WAXAHACHIE     CLEAR     76  76 100 S5        30.04R
CLEBURNE       CLEAR     75  75 100 S9        30.04S
GRANBURY       CLEAR     78  71  79 SE7       30.03S
$$

TXZ083>090-098>101-113>116-127>130-139>142-154-155-251000-
WESTERN NORTH TEXAS

CITY           SKY/WX    TMP DP  RH WIND       PRES   REMARKS
WICHITA FALLS  CLEAR     74  71  91 SE6       30.00R
WF-KICKAPOO    CLEAR     77  72  85 SE7       30.03R
VERNON         CLEAR     79  68  69 SE8       30.01S
ABILENE        CLEAR     75  68  78 S7        30.03S
ABILENE-DYESS  CLEAR     75  68  78 S9        30.02S
GRAHAM         CLEAR     77  70  80 SE5       30.00S
BRECKENRIDGE   CLEAR     78  67  68 S5        30.02R
CISCO          CLEAR     72  68  88 SE8       30.04S
EASTLAND       CLEAR     73  69  87 SE6       30.04R
RANGER         CLEAR     74  68  80 S7        30.04S
MINERAL WELLS  CLEAR     74  71  91 SE6       30.01R
STEPHENVILLE   CLEAR     73  67  80 CALM      30.06S
COMANCHE       CLEAR     71  71 100 S3        30.04S
COLEMAN        PTCLDY    74  68  81 CALM      30.04S
$$

TXZ143>147-156>162-174-175-251000-
CENTRAL TEXAS

CITY           SKY/WX    TMP DP  RH WIND       PRES   REMARKS
WACO           CLEAR     78  72  81 S12       30.03R
WACO-MCGREGOR  CLEAR     76  71  85 S7        30.03S
HILLSBORO      CLEAR     78  73  83 S9        30.03S
CORSICANA      PTCLDY    77  74  90 S7        30.04R
MEXIA          PTCLDY    75  73  93 S7        30.04R
HEARNE         CLOUDY    76  76 100 SE6       30.04S
CAMERON        PTCLDY    75  73  94 S3        30.03S
TEMPLE         CLEAR     75  72  90 S10       30.03S
KILLEEN        CLOUDY    77  72  83 S10       30.03R
KILLEEN-SKYLRK CLOUDY    76  73  91 S8        30.04R
FORT HOOD      CLOUDY    75  72  90 S7        30.01R
HAMILTON       CLEAR     73  71  91 S8        30.05S
LAMPASAS         N/A     76  73  90 CALM      30.03S
$$

TXZ095>097-106>112-122>126-135>138-148>153-164>167-251000-
EAST TEXAS

CITY           SKY/WX    TMP DP  RH WIND       PRES   REMARKS
PARIS            N/A     75  74  96 SE3       30.04R
SULPHUR SPRNGS CLEAR     77  74  91 SE3       30.06R
MOUNT PLEASANT CLEAR    N/A N/A N/A CALM      30.05R
GILMER         CLEAR     74  73  97 CALM      30.04R THUNDER
MINEOLA        CLEAR     77  75  94 SE6       30.03R
TYLER          CLEAR     79  76  90 S10       30.03S
LONGVIEW       CLEAR     77  77 100 S5        30.02R
MARSHALL         N/A     75  73  92 CALM      30.06R
ATHENS         CLEAR     75  75 100 S3        30.03R
PALESTINE      CLOUDY    76  74  92 SE3       30.05S
JACKSONVILLE   PTCLDY    76  76  99 S8        30.07R
HENDERSON      CLOUDY    77  75  92 CALM      30.05R
CENTER         CLOUDY    82  79  92 S3        30.06R FOG     HX  91
NACOGDOCHES    CLOUDY    75  73  94 SE3       30.03R
LUFKIN         CLEAR     74  73  97 SE3       30.04S
$$

SUPPLEMENTAL OBSERVATIONS (NWS FORT WORTH AREA)

CITY           SKY/WX    TMP DP  RH WIND       PRES   REMARKS
DENISON DAM      N/A     77  72  83 E2          N/A
CADDO GRASSLND   N/A     77  72  83 S2          N/A
PAT MAYSE LAKE   N/A     77  75  94 E5          N/A
GREENVILLE       N/A     75  70  83 SE1         N/A
CEDAR HILL       N/A     79  72  78 S6G14       N/A
LBJ GRASSLAND    N/A     77  70  78 SE5         N/A
POSSUM KINGDOM   N/A     77  68  73 SE7         N/A
GRANBURY         N/A     77  70  78 SE8         N/A
MCGREGOR         N/A     75  72  88 S6          N/A
TEMPLE           N/A     75  72  88 S5          N/A
ATHENS           N/A     79  75  89 S7          N/A
$$

SUPPLEMENTAL OBSERVATIONS (NWS NORMAN AREA)

CITY           SKY/WX    TMP DP  RH WIND       PRES   REMARKS
GOODLETT         N/A     75  68  78 SE7       30.01
ODELL            N/A     76  72  85 SE9       30.01
CROWELL          N/A     76  70  82 SE3       30.02
KNOX CITY        N/A     77  66  68 SE7       30.02
SEYMOUR          N/A     78  67  70 SE9       30.01
MILLERS CREEK    N/A     79  70  73 SE7         N/A
$$

SUPPLEMENTAL OBSERVATIONS (NWS SAN ANGELO AREA)

CITY           SKY/WX    TMP DP  RH WIND       PRES   REMARKS
WEINERT          N/A     76  67  75 SE6       30.02
HASKELL          N/A     77  65  64 SE6       30.02
THROCKMORTON     N/A     74  69  85 SE3       30.03
CLYDE            N/A     73  68  86 SE8       30.06
HAMBY            N/A     77  66  69 S6          N/A
IVIE RESERVOIR   N/A     73  68  83 E6          N/A
COLORADO BEND    N/A     75  68  78 S9          N/A
$$

SUPPLEMENTAL OBSERVATIONS (NWS SHREVEPORT AREA)

CITY           SKY/WX    TMP DP  RH WIND       PRES   REMARKS
CLARKSVILLE      N/A     73  70  88 CALM        N/A
TEXARKANA        N/A     73  72  94 CALM        N/A
LINDEN           N/A     75  72  88 CALM        N/A
CADDO LAKE       N/A     73  72  94 CALM        N/A
GILMER           N/A     75  72  88 CALM        N/A
HENDERSON        N/A     77  75  94 S3          N/A
LUFKIN           N/A     75  73  94 MISG        N/A
N SABINE NF      N/A     75  73  94 MISG        N/A
S SABINE NF      N/A     75  72  88 S2          N/A
$$

SUPPLEMENTAL OBSERVATIONS ARE A COLLECTION OF AUTOMATED INSTRUMENTS
THAT ARE MAINTAINED BY A VARIETY OF FEDERAL AND STATE AGENCIES.
CERTAIN ELEMENTS...SUCH AS HUMIDITY VALUES AND SUSTAINED WIND
SPEEDS...MAY BE APPROXIMATED.




USA.gov is the U.S. government's official web portal to all federal, state and local government web resources and services.